Location: Kirchberg
(47.4114°N, 9.0398°E)
Time: 07:59:48
(UTC+00:00)

Cosmos 2322 - Pass Details

Date: 03 March 2021
Orbit: 841 x 853 km, 71.0° (Epoch: 11 April)

Event Time Altitude Azimuth Distance (km) Brightness Sun altitude
Rises 19:43:50 0° 214° (SSW) 3,411 7.0 -26.1°
Reaches altitude 10° 19:46:18 10° 217° (SW) 2,479 6.3 -26.5°
Maximum altitude 19:51:58 68° 300° (WNW) 921 4.0 -27.4°
Drops below altitude 10° 19:57:41 10° 23° (NNE) 2,491 6.1 -28.3°
Sets 20:00:10 0° 26° (NNE) 3,430 6.8 -28.7°
